sat.trackr.live / text

‹ back to catalog

ANSER FOLLOWER 1

NORAD 58019 · 2023-155D

PAYLOAD ACTIVE UNKNOWN

§ Identity

Operator
Country
SPN
Launch date
2023-10-09
Launch site
FRGUI
Launch vehicle
Mass (kg)
RCS (m²)

External: N2YO · Heavens-Above · Gunter

§ Orbital elements

Epoch: 2026-09-21T22:03:16.448832Z

Period
92.32 min
Inclination
97.5501°
Eccentricity
0.0002110
Mean motion
15.59864680 rev/d
Perigee alt
386.6 km
Apogee alt
389.5 km
Semi-major
6,766.2 km
B*
5.0829e-4
RAAN
359.8016°
Arg perigee
95.6902°
Mean anomaly
264.4595°
Rev number
16,397

§ Raw data

ANSER FOLLOWER 11 58019U 23155D   26264.91894038  .00040874  00000+0  50829-3 0  99902 58019  97.5501 359.8016 0002110  95.6902 264.4595 15.59864680163972

JSON: /api/v1/satellites/58019 · /tle

For live sub-satellite position, see the globe view (requires WebGL).

§ Visibility from observer

Set your observer location to see the next 7 days of passes ≥ 10°. The values pass through the URL so the page stays shareable.

No JS? Fill the form by hand. The geolocation button needs JavaScript.